This is the latest recevied weather packets stored in our database for station/object 5B4APJ-13. If no packets are shown the sender has not sent any weather packets the latest 10 day(s).
| Time | Temp. | Humidity | Pressure | Rain* | Wind** | Luminosity | Snow |
|---|---|---|---|---|---|---|---|
| 1777992722 | 16.67° C | 46% | 1013.1 hPa | 0 mm | 0.89 m/s, 38° | 39 W/m² | - |
| 1777992422 | 17.22° C | 45% | 1013.3 hPa | 0 mm | 0.45 m/s, 339° | 41 W/m² | - |
| 1777992122 | 17.22° C | 45% | 1013.3 hPa | 0 mm | 0.45 m/s, 340° | 58 W/m² | - |
| 1777991822 | 16.67° C | 46% | 1013.1 hPa | 0 mm | 1.79 m/s, 22° | 78 W/m² | - |
| 1777991522 | 17.22° C | 46% | 1013.1 hPa | 0 mm | 0.45 m/s, 26° | 94 W/m² | - |
| 1777991222 | 17.22° C | 46% | 1012.8 hPa | 0 mm | 1.34 m/s, 309° | 111 W/m² | - |
| 1777990922 | 16.67° C | 47% | 1013 hPa | 0 mm | 0.45 m/s, 334° | 111 W/m² | - |
| 1777990622 | 17.22° C | 45% | 1013 hPa | 0 mm | 1.34 m/s, 54° | 93 W/m² | - |
| 1777990322 | 17.78° C | 44% | 1013.1 hPa | 0 mm | 0.89 m/s, 317° | 96 W/m² | - |
| 1777990022 | 17.78° C | 44% | 1012.9 hPa | 0 mm | 1.79 m/s, 17° | 152 W/m² | - |
| 1777989722 | 17.78° C | 45% | 1013 hPa | 0 mm | 2.68 m/s, 19° | 368 W/m² | - |
| 1777989422 | 17.22° C | 47% | 1012.9 hPa | 0 mm | 1.34 m/s, 64° | 318 W/m² | - |
| 1777989123 | 16.67° C | 48% | 1013 hPa | 0 mm | 1.79 m/s, 54° | 267 W/m² | - |
| 1777988823 | 17.22° C | 48% | 1012.8 hPa | 0 mm | 1.79 m/s, 66° | 115 W/m² | - |
| 1777988523 | 17.22° C | 45% | 1012.8 hPa | 0 mm | 1.79 m/s, 57° | 135 W/m² | - |
| 1777988222 | 17.78° C | 44% | 1012.9 hPa | 0 mm | 2.68 m/s, 73° | 172 W/m² | - |
| 1777987923 | 17.22° C | 44% | 1012.9 hPa | 0 mm | 1.34 m/s, 71° | 473 W/m² | - |
| 1777987623 | 17.22° C | 45% | 1012.9 hPa | 0 mm | 1.34 m/s, 86° | 528 W/m² | - |
| 1777987323 | 17.78° C | 46% | 1012.7 hPa | 0 mm | 1.79 m/s, 78° | 206 W/m² | - |
| 1777987023 | 17.78° C | 44% | 1012.9 hPa | 0 mm | 0 m/s | 212 W/m² | - |
| 1777986723 | 17.78° C | 43% | 1012.9 hPa | 0 mm | 1.34 m/s, 236° | 545 W/m² | - |
| 1777986423 | 17.78° C | 44% | 1012.8 hPa | 0 mm | 0.89 m/s, 297° | 564 W/m² | - |
| 1777986122 | 17.78° C | 45% | 1012.8 hPa | 0 mm | 1.34 m/s, 241° | 513 W/m² | - |
| 1777985825 | 17.78° C | 43% | 1013 hPa | 0 mm | 1.79 m/s, 262° | 513 W/m² | - |
| 1777985523 | 17.78° C | 45% | 1013 hPa | 0 mm | 0.89 m/s, 331° | 525 W/m² | - |
* Rain latest hour (hover to see other rain measurements)
** Current wind speed in m/s (hover to see current wind gust speed)